#�ϑ�����,���ϕ���,���ϕ���,�ő啗��,�ő啗����������,�ő�u�ԕ���,�ő�u�ԕ�����������
#(�N����),(m/s)   ,(16����),(m/s)   ,(16����)        ,(m/s)       ,(16����)            
2015/2/19 0:01,2,1,2.2,16,1.9,2
2015/2/19 0:02,1.9,1,2,16,3.2,5
2015/2/19 0:03,1.8,1,1.9,16,5.1,6
2015/2/19 0:04,1.6,1,1.8,16,1.3,15
2015/2/19 0:05,1.4,1,1.6,16,1.5,1
2015/2/19 0:06,1.3,1,1.4,16,1,1
2015/2/19 0:07,1.2,2,1.3,16,1.8,1
2015/2/19 0:08,1,2,1.2,16,0.3,2
2015/2/19 0:09,0.9,2,1,16,0.8,16
2015/2/19 0:10,0.8,2,0.9,16,0.4,6
2015/2/19 0:11,0.7,2,0.8,1,1,1
2015/2/19 0:12,0.6,2,0.7,1,1.4,1
2015/2/19 0:13,0.5,2,0.6,1,1.8,3
2015/2/19 0:14,0.5,1,0.5,1,1.3,12
2015/2/19 0:15,0.6,1,0.6,1,1.5,11
2015/2/19 0:16,0.7,1,0.7,2,2.4,10
2015/2/19 0:17,0.8,1,0.8,2,3.6,13
2015/2/19 0:18,0.9,16,0.9,2,3.1,11
2015/2/19 0:19,1,1,1,1,2.6,1
2015/2/19 0:20,1.1,1,1.1,1,2.7,4
2015/2/19 0:21,1.3,1,1.3,1,2.7,3
2015/2/19 0:22,1.3,16,1.3,1,2.6,16
2015/2/19 0:23,1.4,16,1.4,16,5.4,16
2015/2/19 0:24,1.8,1,1.8,1,8.4,16
2015/2/19 0:25,2,2,2,1,6,1
2015/2/19 0:26,2.3,1,2.3,1,6.2,16
2015/2/19 0:27,2.4,1,2.4,1,7.1,16
2015/2/19 0:28,2.7,1,2.7,1,6.8,16
2015/2/19 0:29,2.8,1,2.8,1,5.5,15
2015/2/19 0:30,2.8,16,2.8,1,3,15
2015/2/19 0:31,2.9,16,2.9,16,5.1,15
2015/2/19 0:32,3.2,16,3.2,16,4.5,15
2015/2/19 0:33,3.2,16,3.3,16,4.9,1
2015/2/19 0:34,2.9,16,3.1,16,3.2,1
2015/2/19 0:35,2.8,16,2.9,16,2.6,4
2015/2/19 0:36,2.4,16,2.7,16,1,5
2015/2/19 0:37,2.1,16,2.4,16,0.4,12
2015/2/19 0:38,1.8,16,2.1,16,0.5,10
2015/2/19 0:39,1.6,1,1.8,16,1.6,5
2015/2/19 0:40,1.5,2,1.6,16,0.9,16
2015/2/19 0:41,1.1,2,1.4,16,1,7
2015/2/19 0:42,0.9,4,1.1,16,1.6,7
2015/2/19 0:43,0.7,5,0.9,16,1.4,6
2015/2/19 0:44,0.6,7,0.7,16,1.1,10
2015/2/19 0:45,0.5,9,0.6,16,1.4,12
2015/2/19 0:46,0.6,10,0.6,16,1.9,12
2015/2/19 0:47,0.7,10,0.7,16,1.6,15
2015/2/19 0:48,0.8,10,0.8,16,1.9,10
2015/2/19 0:49,0.8,10,0.8,1,1.5,9
2015/2/19 0:50,0.7,10,0.8,2,0.1,3
2015/2/19 0:51,0.7,10,0.7,3,0.1,5
2015/2/19 0:52,0.7,11,0.7,4,1.5,15
2015/2/19 0:53,0.7,12,0.7,10,1.1,16
2015/2/19 0:54,0.7,11,0.7,10,1.4,9
2015/2/19 0:55,0.7,11,0.7,10,1.6,9
2015/2/19 0:56,0.7,10,0.7,10,2.1,9
2015/2/19 0:57,0.7,10,0.7,10,1.3,12
2015/2/19 0:58,0.7,9,0.7,10,2.6,9
2015/2/19 0:59,0.8,9,0.8,10,4.1,8
2015/2/19 1:00,1,9,1,9,5.6,8
2015/2/19 1:01,1.2,10,1.2,10,5.1,15
2015/2/19 1:02,1.4,10,1.4,10,6.5,13
2015/2/19 1:03,1.7,10,1.7,10,6.4,16
2015/2/19 1:04,1.9,11,1.9,11,3.7,16
2015/2/19 1:05,2,12,2,12,5.1,1
2015/2/19 1:06,2.2,14,2.2,13,6,16
2015/2/19 1:07,2.3,15,2.3,14,3.9,1
2015/2/19 1:08,2.4,15,2.4,15,3.5,1
2015/2/19 1:09,2.7,15,2.7,15,10.6,16
2015/2/19 1:10,3.1,16,3.1,15,9.4,16
2015/2/19 1:11,3.4,16,3.4,16,8.2,16
2015/2/19 1:12,3.5,16,3.5,16,5.1,16
2015/2/19 1:13,3.3,16,3.5,16,4.7,2
2015/2/19 1:14,3.2,16,3.3,16,2.6,16
2015/2/19 1:15,3.1,16,3.2,16,4.9,15
2015/2/19 1:16,3.1,16,3.1,16,5.8,16
2015/2/19 1:17,3.3,16,3.3,16,7.6,1
2015/2/19 1:18,3.5,16,3.5,16,8.6,1
2015/2/19 1:19,3.2,16,3.5,16,3.5,14
2015/2/19 1:20,3,16,3.2,16,5.5,1
2015/2/19 1:21,2.7,16,2.9,16,4.2,16
2015/2/19 1:22,2.5,15,2.7,16,3.2,15
2015/2/19 1:23,2.6,15,2.6,16,4.2,12
2015/2/19 1:24,2.6,15,2.6,16,2.4,12
2015/2/19 1:25,2.4,15,2.6,16,0.8,1
2015/2/19 1:26,2.2,15,2.4,16,1.6,1
2015/2/19 1:27,1.9,15,2.2,16,2.6,3
2015/2/19 1:28,1.7,15,1.9,16,3.3,1
2015/2/19 1:29,1.7,15,1.7,16,4.2,15
2015/2/19 1:30,1.7,16,1.8,16,4.8,16
2015/2/19 1:31,1.7,15,1.8,16,4.5,16
2015/2/19 1:32,1.8,15,1.8,15,5,16
2015/2/19 1:33,1.8,16,1.8,15,4.4,16
2015/2/19 1:34,2.1,16,2.1,15,8.3,15
2015/2/19 1:35,2.5,16,2.5,16,7.8,15
2015/2/19 1:36,2.6,16,2.6,16,3.8,1
2015/2/19 1:37,2.9,16,2.9,16,6.2,15
2015/2/19 1:38,2.9,16,3,16,5.4,16
2015/2/19 1:39,3.1,16,3.1,16,6.5,16
2015/2/19 1:40,3.1,16,3.1,16,6,1
2015/2/19 1:41,3.2,16,3.2,16,7,1
2015/2/19 1:42,3.3,16,3.3,16,7.8,1
2015/2/19 1:43,3.5,16,3.5,16,7.2,15
2015/2/19 1:44,3.7,16,3.7,16,9.1,15
2015/2/19 1:45,3.7,16,3.7,16,6.1,16
2015/2/19 1:46,3.9,16,3.9,16,7.7,15
2015/2/19 1:47,4.1,16,4.1,16,6.3,15
2015/2/19 1:48,4.2,16,4.2,16,6.3,16
2015/2/19 1:49,4.2,16,4.2,16,6.8,16
2015/2/19 1:50,4.2,16,4.2,16,5.8,16
2015/2/19 1:51,4.2,16,4.2,16,5.6,16
2015/2/19 1:52,4.1,16,4.2,16,6.3,2
2015/2/19 1:53,4.1,16,4.1,16,6.5,15
2015/2/19 1:54,4.2,16,4.3,16,12.6,16
2015/2/19 1:55,4.3,16,4.3,16,9.4,1
2015/2/19 1:56,4.1,16,4.2,16,6.2,1
2015/2/19 1:57,4,16,4.1,16,7,16
2015/2/19 1:58,4.3,16,4.3,16,10.1,1
2015/2/19 1:59,4.7,16,4.7,16,10.3,16
2015/2/19 2:00,4.8,16,4.8,16,7.8,16
2015/2/19 2:01,4.6,16,4.8,16,3.2,13
2015/2/19 2:02,4.5,16,4.5,16,5.4,16
2015/2/19 2:03,4.2,16,4.5,16,3.2,14
2015/2/19 2:04,3.9,16,4.2,16,5.7,15
2015/2/19 2:05,3.8,16,3.9,16,6.9,16
2015/2/19 2:06,4,16,4,16,5,16
2015/2/19 2:07,3.9,16,4,16,6,16
2015/2/19 2:08,3.6,16,3.9,16,5.1,15
2015/2/19 2:09,3.4,15,3.6,16,7.9,16
2015/2/19 2:10,3.4,15,3.4,16,8.1,16
2015/2/19 2:11,3.5,15,3.5,16,5.6,16
2015/2/19 2:12,3.4,15,3.5,16,4.5,15
2015/2/19 2:13,3.5,15,3.5,16,4.1,16
2015/2/19 2:14,3.5,16,3.6,16,6.2,14
2015/2/19 2:15,3.5,16,3.6,16,5.6,1
2015/2/19 2:16,3.5,16,3.6,16,6.8,15
2015/2/19 2:17,3.5,16,3.5,16,6.1,15
2015/2/19 2:18,3.7,16,3.7,16,10.6,16
2015/2/19 2:19,3.7,16,3.8,16,8.3,15
2015/2/19 2:20,3.7,16,3.7,16,7,16
2015/2/19 2:21,4,16,4.1,16,8.6,16
2015/2/19 2:22,4.3,16,4.3,16,8.3,16
2015/2/19 2:23,4.5,16,4.5,16,8.6,16
2015/2/19 2:24,4.7,16,4.7,16,7.6,16
2015/2/19 2:25,4.6,16,4.7,16,6.3,16
2015/2/19 2:26,4.6,16,4.6,16,6.4,1
2015/2/19 2:27,4.7,16,4.7,16,6,1
2015/2/19 2:28,4.3,16,4.7,16,3.6,16
2015/2/19 2:29,4,16,4.3,16,5.2,16
2015/2/19 2:30,3.7,16,4,16,4.5,16
2015/2/19 2:31,3.6,16,3.7,16,7,15
2015/2/19 2:32,3.6,16,3.6,16,7.9,15
2015/2/19 2:33,3.6,16,3.7,16,7.6,16
2015/2/19 2:34,3.6,16,3.7,16,6.9,16
2015/2/19 2:35,3.5,16,3.6,16,4.7,15
2015/2/19 2:36,3.4,16,3.5,16,5,1
2015/2/19 2:37,3.4,16,3.4,16,6.1,16
2015/2/19 2:38,3.6,16,3.6,16,6.9,14
2015/2/19 2:39,3.7,16,3.7,16,6.4,15
2015/2/19 2:40,4,16,4,16,7.5,16
2015/2/19 2:41,3.9,16,4,16,6.3,16
2015/2/19 2:42,3.9,16,3.9,16,8.6,16
2015/2/19 2:43,3.8,16,3.9,16,7.5,16
2015/2/19 2:44,3.9,16,3.9,16,8.3,15
2015/2/19 2:45,4,16,4,16,7.2,1
2015/2/19 2:46,4.2,16,4.2,16,5.6,16
2015/2/19 2:47,4.3,16,4.3,16,7.2,1
2015/2/19 2:48,4.5,16,4.5,16,11.3,15
2015/2/19 2:49,4.7,16,4.7,16,10,16
2015/2/19 2:50,4.8,16,4.8,16,9.3,1
2015/2/19 2:51,5,16,5,16,7,16
2015/2/19 2:52,4.9,16,5,16,5.5,16
2015/2/19 2:53,4.8,16,4.8,16,6.8,15
2015/2/19 2:54,4.7,16,4.8,16,6.5,15
2015/2/19 2:55,4.8,16,4.8,16,8.1,16
2015/2/19 2:56,4.7,16,4.8,16,7,1
2015/2/19 2:57,4.6,16,4.7,16,4.7,15
2015/2/19 2:58,4.3,16,4.6,16,4.9,15
2015/2/19 2:59,3.8,16,4.2,16,3,16
2015/2/19 3:00,3.5,16,3.8,16,3,16
2015/2/19 3:01,3.2,16,3.5,16,2.9,14
2015/2/19 3:02,3.1,16,3.2,16,4.2,15
2015/2/19 3:03,2.9,16,3.1,16,5.1,1
2015/2/19 3:04,2.7,16,2.9,16,3,16
2015/2/19 3:05,2.4,16,2.7,16,3.5,16
2015/2/19 3:06,2.3,16,2.3,16,4.2,16
2015/2/19 3:07,2.5,16,2.5,16,9.2,16
2015/2/19 3:08,2.7,16,2.7,16,8.3,1
2015/2/19 3:09,3,16,3,16,7.7,16
2015/2/19 3:10,3,16,3.1,16,4.8,1
2015/2/19 3:11,3,16,3,16,3.1,10
2015/2/19 3:12,3,15,3,16,3.3,10
2015/2/19 3:13,2.9,16,3,16,2.4,4
2015/2/19 3:14,2.8,15,2.9,16,2.2,12
2015/2/19 3:15,2.8,14,2.9,16,1.9,9
2015/2/19 3:16,2.8,13,2.8,16,5.7,9
2015/2/19 3:17,2.7,11,2.9,16,7.1,8
2015/2/19 3:18,2.3,11,2.7,16,3.3,11
2015/2/19 3:19,2,10,2.3,16,2.6,11
2015/2/19 3:20,2.1,10,2.1,16,3.1,12
2015/2/19 3:21,2,10,2.1,16,2,12
2015/2/19 3:22,1.9,11,2,15,3,15
2015/2/19 3:23,2.1,11,2.1,16,6.2,15
2015/2/19 3:24,2.4,12,2.4,15,8.1,14
2015/2/19 3:25,2.4,13,2.5,12,5.4,16
2015/2/19 3:26,2.4,15,2.5,12,3.1,3
2015/2/19 3:27,2.3,15,2.4,11,5,1
2015/2/19 3:28,2.4,16,2.4,12,4.8,15
2015/2/19 3:29,2.5,1,2.5,12,3.2,3
2015/2/19 3:30,2.5,1,2.5,12,3,3
2015/2/19 3:31,2.5,1,2.5,12,2.6,16
2015/2/19 3:32,2.6,1,2.6,1,2.7,2
2015/2/19 3:33,2.4,2,2.6,1,2.2,1
2015/2/19 3:34,2.1,2,2.4,1,3.1,2
2015/2/19 3:35,2,2,2.1,1,2.2,2
2015/2/19 3:36,2,2,2,1,3.5,3
2015/2/19 3:37,2,2,2.1,1,3.7,3
2015/2/19 3:38,1.8,2,2,1,1.6,2
2015/2/19 3:39,1.6,2,1.8,1,1.8,3
2015/2/19 3:40,1.4,2,1.6,1,1,16
2015/2/19 3:41,1.3,2,1.4,1,1.5,15
2015/2/19 3:42,1.2,1,1.3,1,1.1,14
2015/2/19 3:43,1.2,1,1.2,2,1.8,14
2015/2/19 3:44,1.1,1,1.2,2,1.9,16
2015/2/19 3:45,1.1,1,1.1,2,0.8,16
2015/2/19 3:46,0.8,16,1,2,1.8,16
2015/2/19 3:47,0.6,16,0.8,2,0.3,2
2015/2/19 3:48,0.6,16,0.6,2,0.8,15
2015/2/19 3:49,0.5,15,0.6,2,1.3,14
2015/2/19 3:50,0.6,15,0.6,2,1.4,14
2015/2/19 3:51,0.7,15,0.7,2,2.4,14
2015/2/19 3:52,0.8,15,0.8,1,3,8
2015/2/19 3:53,0.9,15,0.9,1,3.6,7
2015/2/19 3:54,0.9,14,0.9,1,2.2,13
2015/2/19 3:55,1.1,14,1.1,14,3.3,11
2015/2/19 3:56,1.3,13,1.3,13,3.6,11
2015/2/19 3:57,1.6,12,1.6,12,4.8,12
2015/2/19 3:58,1.9,12,1.9,12,5,11
2015/2/19 3:59,2,12,2,12,3.3,11
2015/2/19 4:00,2.3,11,2.3,11,5,12
2015/2/19 4:01,2.4,12,2.4,12,4.4,12
2015/2/19 4:02,2.4,11,2.5,11,2.9,10
2015/2/19 4:03,2.4,11,2.4,11,2.5,10
2015/2/19 4:04,2.3,11,2.4,11,1.6,12
2015/2/19 4:05,2.3,11,2.3,11,2.1,15
2015/2/19 4:06,2.2,12,2.3,11,3.2,15
2015/2/19 4:07,2,12,2.2,11,1.4,13
2015/2/19 4:08,1.6,12,1.9,11,0.5,13
2015/2/19 4:09,1.4,12,1.6,11,0,7
2015/2/19 4:10,1.1,12,1.4,11,0,11
2015/2/19 4:11,0.8,12,1.1,11,0,6
2015/2/19 4:12,0.6,13,0.8,11,0,1
2015/2/19 4:13,0.5,13,0.6,11,1.9,12
2015/2/19 4:14,0.5,13,0.5,11,1.6,2
2015/2/19 4:15,0.4,13,0.5,11,2.6,9
2015/2/19 4:16,0.4,11,0.4,12,2.7,9
2015/2/19 4:17,0.5,10,0.5,12,2.2,7
2015/2/19 4:18,0.6,8,0.6,12,2.1,2
2015/2/19 4:19,0.7,6,0.7,12,2.1,5
2015/2/19 4:20,0.7,6,0.7,12,2.1,4
2015/2/19 4:21,0.8,6,0.8,12,2.2,3
2015/2/19 4:22,1.2,6,1.2,6,6.3,16
2015/2/19 4:23,1.4,4,1.4,5,6.3,16
2015/2/19 4:24,1.8,4,1.8,4,8.1,16
2015/2/19 4:25,1.9,3,1.9,4,6.4,1
2015/2/19 4:26,2.2,2,2.2,3,6.5,2
2015/2/19 4:27,2.6,2,2.6,2,7.7,2
2015/2/19 4:28,2.9,1,2.9,1,8.2,2
2015/2/19 4:29,3,1,3,1,6,16
2015/2/19 4:30,3.4,1,3.4,1,7.9,16
2015/2/19 4:31,3.7,1,3.7,1,7.6,16
2015/2/19 4:32,3.9,16,3.9,16,7.8,15
2015/2/19 4:33,4,16,4.1,16,8.2,16
2015/2/19 4:34,3.8,16,4,16,5,15
2015/2/19 4:35,3.8,16,3.8,16,2.9,16
2015/2/19 4:36,3.5,16,3.7,16,3.3,16
2015/2/19 4:37,3.3,16,3.4,16,5,15
2015/2/19 4:38,3.1,16,3.3,16,4.7,16
2015/2/19 4:39,3.3,16,3.3,16,8.7,2
2015/2/19 4:40,3.5,16,3.5,16,9.3,1
2015/2/19 4:41,3.4,16,3.6,16,7.5,1
2015/2/19 4:42,3.2,1,3.4,16,4.9,2
2015/2/19 4:43,3,1,3.1,16,5.6,1
2015/2/19 4:44,3,1,3,16,5.4,1
2015/2/19 4:45,3.2,1,3.2,16,5.4,1
2015/2/19 4:46,3.5,1,3.5,16,7.7,2
2015/2/19 4:47,3.7,1,3.7,1,9.3,16
2015/2/19 4:48,3.7,1,3.8,1,4.9,16
2015/2/19 4:49,3.7,16,3.8,1,8.5,16
2015/2/19 4:50,3.7,16,3.7,1,8.3,1
2015/2/19 4:51,3.8,16,3.8,1,9,16
2015/2/19 4:52,4.1,16,4.1,16,9.3,1
2015/2/19 4:53,4.4,16,4.4,16,10.6,15
2015/2/19 4:54,4.6,16,4.6,16,8.7,16
2015/2/19 4:55,4.6,16,4.6,16,6.8,15
2015/2/19 4:56,4.4,16,4.6,16,4.3,16
2015/2/19 4:57,4.2,16,4.4,16,6.5,16
2015/2/19 4:58,4.1,16,4.2,16,3.2,16
2015/2/19 4:59,3.8,16,4.1,16,3.6,15
2015/2/19 5:00,3.4,15,3.7,16,3.2,16
2015/2/19 5:01,3.2,15,3.4,16,3.7,13
2015/2/19 5:02,2.7,15,3.1,16,2.4,12
2015/2/19 5:03,2.4,15,2.7,16,3.2,12
2015/2/19 5:04,2.1,14,2.4,16,3.5,13
2015/2/19 5:05,2.1,14,2.1,16,5.2,10
2015/2/19 5:06,2.1,13,2.1,16,3.7,11
2015/2/19 5:07,1.9,13,2.1,16,2.7,13
2015/2/19 5:08,1.8,13,1.9,16,0.8,15
2015/2/19 5:09,1.7,13,1.7,16,1.1,13
2015/2/19 5:10,1.6,13,1.7,15,2,1
2015/2/19 5:11,1.7,13,1.7,15,6.2,11
2015/2/19 5:12,1.9,13,1.9,15,5.5,1
2015/2/19 5:13,2.2,13,2.2,15,6.1,15
2015/2/19 5:14,2.5,14,2.5,14,10.1,15
2015/2/19 5:15,2.6,14,2.6,14,7.7,16
2015/2/19 5:16,2.8,15,2.8,15,7.7,16
2015/2/19 5:17,2.8,15,2.8,15,4.2,15
2015/2/19 5:18,3.1,15,3.1,15,7.5,15
2015/2/19 5:19,3.6,16,3.6,15,8.5,14
2015/2/19 5:20,3.8,16,3.8,16,5.7,1
2015/2/19 5:21,3.7,16,3.8,16,3.8,16
2015/2/19 5:22,3.7,16,3.7,16,7.4,1
2015/2/19 5:23,3.7,16,3.7,16,6,16
2015/2/19 5:24,3.5,16,3.7,16,4.8,16
2015/2/19 5:25,3.2,16,3.4,16,4.2,16
2015/2/19 5:26,3.1,16,3.2,16,4.8,11
2015/2/19 5:27,3.2,15,3.2,16,5,13
2015/2/19 5:28,3,15,3.2,16,2.5,13
2015/2/19 5:29,2.7,15,2.9,16,4.5,15
2015/2/19 5:30,2.7,15,2.7,16,4.7,8
2015/2/19 5:31,2.8,14,2.8,16,5.4,16
2015/2/19 5:32,2.9,14,3,16,5.2,14
2015/2/19 5:33,2.8,14,2.9,16,4.7,13
2015/2/19 5:34,2.9,13,2.9,16,4.7,13
2015/2/19 5:35,2.9,13,2.9,16,4.7,14
2015/2/19 5:36,3,14,3,15,5.5,15
2015/2/19 5:37,2.9,14,3,15,5.6,15
2015/2/19 5:38,3,13,3,14,3.6,12
2015/2/19 5:39,2.9,13,3,14,2.4,14
2015/2/19 5:40,2.8,14,2.9,14,2.5,15
2015/2/19 5:41,2.6,13,2.8,14,2.4,15
2015/2/19 5:42,2.5,13,2.6,13,3.7,13
2015/2/19 5:43,2.4,13,2.5,13,3.7,12
2015/2/19 5:44,2.3,13,2.4,13,3.3,12
2015/2/19 5:45,2.2,13,2.3,13,2.4,12
2015/2/19 5:46,2.1,12,2.2,14,2.7,11
2015/2/19 5:47,2.1,12,2.1,14,2.6,12
2015/2/19 5:48,2,12,2,13,2,12
2015/2/19 5:49,2,12,2,13,2.7,15
2015/2/19 5:50,2,12,2,14,2.5,15
2015/2/19 5:51,2,12,2,13,3.1,12
2015/2/19 5:52,2,12,2,13,2.7,11
2015/2/19 5:53,1.9,12,2,13,2.4,10
2015/2/19 5:54,1.7,12,1.9,13,2,14
2015/2/19 5:55,1.6,12,1.7,13,0.5,13
2015/2/19 5:56,1.5,13,1.6,12,1.9,16
2015/2/19 5:57,1.4,13,1.5,12,1.3,14
2015/2/19 5:58,1.4,13,1.4,12,1.6,9
2015/2/19 5:59,1.4,13,1.4,12,3.5,9
2015/2/19 6:00,1.5,12,1.5,12,3.7,12
2015/2/19 6:01,1.6,12,1.6,12,3.6,12
2015/2/19 6:02,1.5,12,1.6,12,2.9,11
2015/2/19 6:03,1.5,12,1.5,12,3.3,15
2015/2/19 6:04,1.7,12,1.7,12,3.5,15
2015/2/19 6:05,2,12,2,12,3.7,11
2015/2/19 6:06,2.2,11,2.2,12,4.4,10
2015/2/19 6:07,2.4,11,2.4,11,4.2,10
2015/2/19 6:08,2.3,11,2.4,11,2.2,7
2015/2/19 6:09,2.2,11,2.3,11,1.5,2
2015/2/19 6:10,2,11,2.2,11,2,7
2015/2/19 6:11,1.9,11,2,11,2,8
2015/2/19 6:12,1.9,11,1.9,11,2.2,11
2015/2/19 6:13,2,11,2,11,3.5,10
2015/2/19 6:14,1.8,10,2,11,3.5,9
2015/2/19 6:15,1.7,10,1.8,11,2.2,10
2015/2/19 6:16,1.4,10,1.7,11,2.2,10
2015/2/19 6:17,1.2,9,1.4,11,1.4,7
2015/2/19 6:18,1.2,9,1.2,11,1.4,10
2015/2/19 6:19,1.2,9,1.2,11,0.8,5
2015/2/19 6:20,1.1,10,1.2,11,0.5,8
2015/2/19 6:21,1.1,10,1.1,11,2,8
2015/2/19 6:22,1,9,1.1,11,2.4,9
2015/2/19 6:23,0.9,9,1,11,2.1,15
2015/2/19 6:24,1,10,1,10,3.9,16
2015/2/19 6:25,1.1,13,1.1,10,3.1,14
2015/2/19 6:26,1,15,1.1,10,1.9,16
2015/2/19 6:27,0.9,16,1,9,1.1,4
2015/2/19 6:28,1.1,16,1.1,9,4.8,5
2015/2/19 6:29,1.3,15,1.3,15,3.9,6
2015/2/19 6:30,1.6,15,1.6,15,6.1,10
2015/2/19 6:31,1.8,15,1.8,15,3.9,9
2015/2/19 6:32,1.8,13,1.9,14,2.1,10
2015/2/19 6:33,1.7,12,1.8,14,1.1,1
2015/2/19 6:34,1.6,11,1.7,14,1.6,3
2015/2/19 6:35,1.5,12,1.6,14,3.5,16
2015/2/19 6:36,1.7,12,1.7,14,4.9,16
2015/2/19 6:37,1.8,11,1.8,14,2.9,1
2015/2/19 6:38,1.6,12,1.8,14,1.8,8
2015/2/19 6:39,1.6,12,1.6,14,2.2,9
2015/2/19 6:40,1.3,13,1.5,14,0.9,12
2015/2/19 6:41,1,15,1.2,14,1.1,1
2015/2/19 6:42,1.1,1,1.1,13,3.1,8
2015/2/19 6:43,1.3,2,1.3,12,3.3,8
2015/2/19 6:44,1.4,9,1.4,12,3.9,8
2015/2/19 6:45,1.4,9,1.4,12,2.4,10
2015/2/19 6:46,1.2,9,1.3,12,1.6,9
2015/2/19 6:47,1.1,9,1.2,11,2,10
2015/2/19 6:48,1.1,9,1.1,12,1.8,9
2015/2/19 6:49,1.2,9,1.2,12,3.2,9
2015/2/19 6:50,1.3,9,1.3,9,2.5,10
2015/2/19 6:51,1.5,9,1.5,9,3,8
2015/2/19 6:52,1.4,10,1.5,9,2.9,9
2015/2/19 6:53,1.3,10,1.3,9,1.6,10
2015/2/19 6:54,1.2,10,1.3,9,1.6,12
2015/2/19 6:55,1.3,10,1.3,9,2,12
2015/2/19 6:56,1.2,10,1.2,9,1,12
2015/2/19 6:57,1.2,10,1.2,9,2.2,9
2015/2/19 6:58,1.2,11,1.2,9,0,12
2015/2/19 6:59,1,11,1.2,9,0.1,2
2015/2/19 7:00,0.9,11,1,9,1.1,10
2015/2/19 7:01,0.8,11,0.9,9,2.1,10
2015/2/19 7:02,0.8,11,0.8,10,1.3,9
2015/2/19 7:03,0.7,11,0.8,10,1.4,8
2015/2/19 7:04,0.7,11,0.7,10,2.9,9
2015/2/19 7:05,0.9,10,0.9,10,3.6,9
2015/2/19 7:06,1,10,1,10,3.5,9
2015/2/19 7:07,1.2,10,1.2,10,3.7,10
2015/2/19 7:08,1.4,10,1.4,10,3.5,9
2015/2/19 7:09,1.6,10,1.6,10,2.6,12
2015/2/19 7:10,1.6,10,1.6,10,2.2,13
2015/2/19 7:11,1.5,10,1.6,10,1,11
2015/2/19 7:12,1.5,10,1.5,10,0.1,10
2015/2/19 7:13,1.5,10,1.5,10,1.4,11
2015/2/19 7:14,1.4,10,1.5,10,1.4,11
2015/2/19 7:15,1.1,10,1.3,10,1.3,9
2015/2/19 7:16,1,10,1.1,10,1.5,8
2015/2/19 7:17,0.8,10,1,10,1.6,8
2015/2/19 7:18,0.6,10,0.8,10,0.6,8
2015/2/19 7:19,0.6,10,0.6,10,1.6,9
2015/2/19 7:20,0.6,9,0.6,10,2,8
2015/2/19 7:21,0.7,9,0.7,10,1.8,7
2015/2/19 7:22,0.7,9,0.7,10,1.5,10
2015/2/19 7:23,0.7,9,0.8,10,1.6,9
2015/2/19 7:24,0.7,8,0.7,10,1.1,7
2015/2/19 7:25,0.7,8,0.7,10,1.3,6
2015/2/19 7:26,0.7,8,0.7,10,1.8,8
2015/2/19 7:27,0.9,8,0.9,8,2.9,8
2015/2/19 7:28,0.9,8,0.9,8,2.4,8
2015/2/19 7:29,1,8,1,8,2,8
2015/2/19 7:30,0.9,8,1,8,1.5,9
2015/2/19 7:31,0.9,8,0.9,8,1.5,14
2015/2/19 7:32,0.9,8,0.9,8,1.3,13
2015/2/19 7:33,1,9,1,8,1.8,9
2015/2/19 7:34,1,9,1,8,1.4,7
2015/2/19 7:35,0.9,9,1,8,0.5,9
2015/2/19 7:36,0.9,9,0.9,8,1.4,8
2015/2/19 7:37,0.7,9,0.8,8,0.1,7
2015/2/19 7:38,0.6,10,0.7,8,1.5,16
2015/2/19 7:39,0.5,10,0.6,8,0.6,16
2015/2/19 7:40,0.4,10,0.5,9,0.1,10
2015/2/19 7:41,0.4,10,0.4,9,1.1,12
2015/2/19 7:42,0.6,9,0.6,9,3.3,10
2015/2/19 7:43,0.7,10,0.7,9,3.5,11
2015/2/19 7:44,1,10,1,9,3.3,10
2015/2/19 7:45,1.1,10,1.1,10,3.1,9
2015/2/19 7:46,1.2,10,1.2,10,2.5,8
2015/2/19 7:47,1.4,11,1.4,11,2.5,1
2015/2/19 7:48,1.5,11,1.5,11,3.9,13
2015/2/19 7:49,1.7,11,1.7,11,2.7,14
2015/2/19 7:50,1.8,11,1.8,11,1.8,12
2015/2/19 7:51,1.8,11,1.8,11,2.6,11
2015/2/19 7:52,1.8,12,1.8,11,2.4,12
2015/2/19 7:53,1.7,12,1.8,11,3.3,10
2015/2/19 7:54,1.7,12,1.7,11,3,11
2015/2/19 7:55,1.7,12,1.7,11,2.9,11
2015/2/19 7:56,1.9,12,1.9,12,3,11
2015/2/19 7:57,2,12,2,12,3.9,11
2015/2/19 7:58,1.9,11,2,12,2.9,10
2015/2/19 7:59,1.7,11,1.9,12,0.3,10
2015/2/19 8:00,1.8,11,1.8,12,5.5,16
2015/2/19 8:01,1.8,12,1.9,12,4.1,15
2015/2/19 8:02,1.8,12,1.8,12,1.9,12
2015/2/19 8:03,1.7,12,1.8,12,2,13
2015/2/19 8:04,1.7,12,1.7,12,3.1,12
2015/2/19 8:05,1.7,12,1.8,12,2.9,11
2015/2/19 8:06,1.7,12,1.7,12,3.1,12
2015/2/19 8:07,1.7,12,1.7,12,3.3,12
2015/2/19 8:08,1.8,12,1.8,11,3.2,12
2015/2/19 8:09,2,12,2,12,2.2,11
2015/2/19 8:10,1.9,12,2,12,2,16
2015/2/19 8:11,1.9,12,1.9,12,3.6,16
2015/2/19 8:12,2,13,2.1,12,3.9,16
2015/2/19 8:13,1.9,13,2,12,1.5,2
2015/2/19 8:14,1.7,13,1.9,12,1.1,8
2015/2/19 8:15,1.6,13,1.7,12,1.1,8
2015/2/19 8:16,1.4,13,1.5,12,1.1,8
2015/2/19 8:17,1.1,13,1.4,12,0.9,14
2015/2/19 8:18,1,13,1.1,12,1.4,8
2015/2/19 8:19,1,12,1,12,2.5,8
2015/2/19 8:20,1.1,10,1.1,12,2.7,8
2015/2/19 8:21,1.1,9,1.1,12,2.7,8
2015/2/19 8:22,1,9,1.1,13,2.4,9
2015/2/19 8:23,1.1,9,1.1,13,2.1,9
2015/2/19 8:24,1.1,9,1.1,13,0.9,9
2015/2/19 8:25,1.1,9,1.1,13,1.8,10
2015/2/19 8:26,1.2,9,1.2,13,2.7,7
2015/2/19 8:27,1.3,8,1.3,9,2.5,8
2015/2/19 8:28,1.4,8,1.4,8,3,9
2015/2/19 8:29,1.4,8,1.4,8,3.7,9
2015/2/19 8:30,1.3,8,1.4,8,2.5,8
2015/2/19 8:31,1.2,8,1.3,8,1.9,6
2015/2/19 8:32,1.2,9,1.2,8,2.2,13
2015/2/19 8:33,1.3,9,1.3,8,2.2,12
2015/2/19 8:34,1.5,10,1.5,10,2.7,10
2015/2/19 8:35,1.5,10,1.5,10,2.2,10
2015/2/19 8:36,1.5,10,1.5,10,2.1,9
2015/2/19 8:37,1.5,10,1.5,10,1.9,10
2015/2/19 8:38,1.4,10,1.5,10,1.5,9
2015/2/19 8:39,1.3,10,1.4,10,2.1,9
2015/2/19 8:40,1.3,10,1.3,10,1.9,9
2015/2/19 8:41,1.3,10,1.3,10,1.4,10
2015/2/19 8:42,1.3,10,1.3,10,2.2,8
2015/2/19 8:43,1.2,10,1.3,10,1.9,9
2015/2/19 8:44,1,9,1.2,10,1.8,8
2015/2/19 8:45,1,9,1,10,1.8,8
2015/2/19 8:46,0.9,9,1,10,0.8,11
2015/2/19 8:47,0.9,10,0.9,10,1.6,16
2015/2/19 8:48,0.9,10,0.9,10,2,1
2015/2/19 8:49,0.8,10,0.9,10,1.3,3
2015/2/19 8:50,0.8,7,0.8,10,1.1,5
2015/2/19 8:51,0.8,4,0.8,10,1,4
2015/2/19 8:52,0.7,4,0.7,10,0.9,9
2015/2/19 8:53,0.7,5,0.7,10,1.5,8
2015/2/19 8:54,0.8,5,0.8,9,1.8,7
2015/2/19 8:55,0.7,4,0.8,9,0.6,7
2015/2/19 8:56,0.7,5,0.7,10,2.6,7
2015/2/19 8:57,0.7,6,0.7,10,0.8,7
2015/2/19 8:58,0.6,6,0.6,10,1.6,2
2015/2/19 8:59,0.7,6,0.7,10,1.9,1
2015/2/19 9:00,0.8,6,0.8,6,2.2,2
2015/2/19 9:01,0.9,5,0.9,5,1.8,1
2015/2/19 9:02,1,3,1,3,1.8,1
2015/2/19 9:03,1,2,1,3,1.8,16
2015/2/19 9:04,0.9,2,1,3,0.9,15
2015/2/19 9:05,0.9,1,0.9,3,0.9,15
2015/2/19 9:06,0.9,1,0.9,3,1.4,12
2015/2/19 9:07,1,16,1,3,2.4,12
2015/2/19 9:08,1.2,16,1.2,16,2.9,14
2015/2/19 9:09,1.3,16,1.3,16,3.6,16
2015/2/19 9:10,1.3,16,1.3,16,3.9,1
2015/2/19 9:11,1.3,15,1.3,16,3.3,10
2015/2/19 9:12,1.5,14,1.5,14,4.1,10
2015/2/19 9:13,1.5,13,1.5,14,3.9,9
2015/2/19 9:14,1.7,13,1.7,13,4.7,12
2015/2/19 9:15,1.9,12,1.9,12,3.1,12
2015/2/19 9:16,2.1,12,2.1,12,2.5,12
2015/2/19 9:17,2,12,2.1,12,2.1,13
2015/2/19 9:18,1.9,13,2,12,2,15
2015/2/19 9:19,1.7,12,1.9,12,1.8,16
2015/2/19 9:20,1.6,12,1.7,12,1,15
2015/2/19 9:21,1.5,13,1.6,12,2,12
2015/2/19 9:22,1.5,13,1.5,12,4.8,10
2015/2/19 9:23,1.5,13,1.5,12,3.6,11
2015/2/19 9:24,1.4,13,1.5,12,3.9,12
2015/2/19 9:25,1.4,13,1.5,12,3.9,12
2015/2/19 9:26,1.5,13,1.5,12,3.6,12
2015/2/19 9:27,1.6,13,1.6,12,4.7,1
2015/2/19 9:28,1.7,13,1.7,12,4.3,4
2015/2/19 9:29,1.8,13,1.8,13,3.1,16
2015/2/19 9:30,1.9,13,1.9,13,3.1,16
2015/2/19 9:31,2,14,2.1,13,3.8,15
2015/2/19 9:32,2,14,2,13,3.8,12
2015/2/19 9:33,2.1,14,2.1,13,4.1,13
2015/2/19 9:34,2,14,2.1,13,3.2,13
2015/2/19 9:35,1.9,14,2,13,2,12
2015/2/19 9:36,1.7,14,1.9,13,1.6,13
2015/2/19 9:37,1.6,14,1.7,13,2.2,7
2015/2/19 9:38,1.6,14,1.6,13,3,9
2015/2/19 9:39,1.7,13,1.7,13,3.6,10
2015/2/19 9:40,1.7,12,1.7,13,2.7,12
2015/2/19 9:41,1.6,12,1.6,14,2.4,11
2015/2/19 9:42,1.6,11,1.6,14,2.5,10
2015/2/19 9:43,1.4,11,1.5,14,2.7,9
2015/2/19 9:44,1.5,11,1.5,14,4.2,9
2015/2/19 9:45,1.6,10,1.6,14,4.1,9
2015/2/19 9:46,1.6,10,1.6,15,4.2,10
2015/2/19 9:47,1.7,10,1.7,13,3.2,10
2015/2/19 9:48,1.6,10,1.7,13,1.9,2
2015/2/19 9:49,1.4,10,1.6,13,0.8,6
2015/2/19 9:50,1.4,10,1.4,10,2.1,12
2015/2/19 9:51,1.4,10,1.4,10,2.4,9
2015/2/19 9:52,1.4,10,1.4,10,3.5,8
2015/2/19 9:53,1.3,9,1.4,10,2.9,6
2015/2/19 9:54,1.4,9,1.4,10,4.2,6
2015/2/19 9:55,1.3,9,1.4,10,2.2,1
2015/2/19 9:56,1.5,9,1.5,10,4.9,3
2015/2/19 9:57,1.5,9,1.5,10,6.8,14
2015/2/19 9:58,2,10,2,10,8.4,13
2015/2/19 9:59,2.3,10,2.3,10,6.2,16
2015/2/19 10:00,2.3,10,2.4,10,3.8,16
2015/2/19 10:01,2.4,13,2.4,10,7.1,16
2015/2/19 10:02,2.7,15,2.7,15,5.7,14
2015/2/19 10:03,3.3,15,3.3,15,12.8,16
2015/2/19 10:04,3.5,15,3.5,15,9.8,16
2015/2/19 10:05,3.7,15,3.7,15,5.2,1
2015/2/19 10:06,3.7,15,3.7,15,5.4,16
2015/2/19 10:07,3.9,15,3.9,15,5.5,15
2015/2/19 10:08,3.5,15,3.8,15,4.3,15
2015/2/19 10:09,3.4,15,3.4,15,6.9,15
2015/2/19 10:10,3.6,15,3.6,15,7.2,2
2015/2/19 10:11,3.7,15,3.7,15,6,16
2015/2/19 10:12,3.8,15,3.8,15,9.1,15
2015/2/19 10:13,3.5,16,3.7,15,10.6,1
2015/2/19 10:14,3.5,16,3.5,15,5.4,16
2015/2/19 10:15,3.4,16,3.5,15,4.2,1
2015/2/19 10:16,3.3,16,3.4,15,5.1,14
2015/2/19 10:17,3.1,16,3.3,15,4.4,14
2015/2/19 10:18,3.3,16,3.3,15,7.1,1
2015/2/19 10:19,3.7,16,3.7,15,10.7,16
2015/2/19 10:20,3.8,16,3.9,16,9.4,16
2015/2/19 10:21,3.7,16,3.8,16,3.7,12
2015/2/19 10:22,3.5,16,3.7,16,3.8,11
2015/2/19 10:23,3.1,15,3.5,16,4.1,12
2015/2/19 10:24,2.9,15,3.1,16,2,4
2015/2/19 10:25,2.9,16,2.9,16,3.6,3
2015/2/19 10:26,2.8,16,2.9,16,2.6,16
2015/2/19 10:27,2.9,16,2.9,16,5.4,16
2015/2/19 10:28,2.6,16,2.8,16,2.1,15
2015/2/19 10:29,2,16,2.6,16,3.7,15
2015/2/19 10:30,2,16,2,16,7.7,11
2015/2/19 10:31,2,16,2,16,5.8,13
2015/2/19 10:32,1.9,16,2,15,2.7,1
2015/2/19 10:33,1.8,1,1.9,15,2.9,2
2015/2/19 10:34,1.9,16,1.9,15,3.2,9
2015/2/19 10:35,1.9,14,1.9,16,2.9,14
2015/2/19 10:36,2,13,2,16,4.7,15
2015/2/19 10:37,2,13,2,16,3,13
2015/2/19 10:38,2.1,13,2.1,16,4.1,15
2015/2/19 10:39,2.2,13,2.2,13,3.9,15
2015/2/19 10:40,2,14,2.2,13,3.7,2
2015/2/19 10:41,1.9,14,1.9,13,3.5,16
2015/2/19 10:42,2,13,2,13,3.3,11
2015/2/19 10:43,2.2,13,2.2,13,3.5,10
2015/2/19 10:44,2.1,13,2.2,13,2.9,9
2015/2/19 10:45,2.1,13,2.1,13,2.2,5
2015/2/19 10:46,2,14,2.1,13,2.2,5
2015/2/19 10:47,1.9,2,1.9,13,1.5,2
2015/2/19 10:48,1.8,3,1.9,13,2,2
2015/2/19 10:49,1.7,4,1.8,13,2.7,4
2015/2/19 10:50,1.9,4,1.9,13,7.1,4
2015/2/19 10:51,1.9,4,1.9,13,4.9,16
2015/2/19 10:52,2,3,2,13,4.8,2
2015/2/19 10:53,2.1,3,2.1,13,4.7,16
2015/2/19 10:54,2.1,3,2.1,13,4.2,4
2015/2/19 10:55,2.2,3,2.2,3,4.7,3
2015/2/19 10:56,2.6,2,2.6,2,8.5,16
2015/2/19 10:57,2.8,2,2.8,2,7.6,16
2015/2/19 10:58,3,2,3,2,6.2,15
2015/2/19 10:59,3.1,1,3.1,1,5.5,1
2015/2/19 11:00,3,1,3.2,1,6.9,16
2015/2/19 11:01,2.9,1,3,1,2.9,1
2015/2/19 11:02,2.8,1,2.9,1,3.8,2
2015/2/19 11:03,2.9,1,2.9,1,7.5,16
2015/2/19 11:04,2.9,16,2.9,1,8.2,16
2015/2/19 11:05,2.8,16,2.9,1,4.3,1
2015/2/19 11:06,2.6,16,2.8,1,5.1,1
2015/2/19 11:07,2.7,16,2.7,1,7.8,15
2015/2/19 11:08,2.9,16,2.9,1,11.9,15
2015/2/19 11:09,2.9,16,3,1,3.9,1